Regional Weather Roundup
Issued by NWS

Home | Current Version | Previous Version | Text Only | Print | Product List | Glossary On
Versions: 1 2 3 4 5 6 7 8 9 10 11 12 13 14 15 16 17 18 19 20 21 22 23 24 25 26 27 28 29 30 31 32 33 34 35 36 37 38 39 40 41 42 43 44 45 46 47 48 49 50
000
ASUS43 KLSX 311259
RWRMO

WEATHER SUMMARY FOR MISSOURI
NATIONAL WEATHER SERVICE SPRINGFIELD MO
700 AM CST SAT JAN 31 2015

NOTE: "FAIR" INDICATES FEW OR NO CLOUDS BELOW 12,000 FEET WITH NO
       SIGNIFICANT WEATHER AND/OR OBSTRUCTIONS TO VISIBILITY.
       CURRENT SKY AND/OR WEATHER CONDITIONS ARE NOT AVAILABLE FOR
       CHILLICOTHE AND FARMINGTON.

MOZ001>031-035>038-043-044-053-054-311400-
...NORTHERN AND WESTERN MISSOURI...

CITY           SKY/WX    TMP DP  RH WIND       PRES   REMARKS
KANSAS CTY INT LGT RAIN  34  33  96 SE5       30.25S WCI  30
KANSAS C DTWN  LGT RAIN  36  33  89 E5        30.26S
LEE`S SUMMIT   LGT RAIN  34  31  88 CALM      30.26S
ST JOSEPH      LGT RAIN  34  33  96 S3        30.26S FOG
CHILLICOTHE      N/A     33  29  85 CALM      30.28S
KIRKSVILLE     CLOUDY    30  21  69 SW5       30.27S WCI  25

$$
MOZ066>068-077>081-088>096-101>105-311400-
...SOUTHWEST MISSOURI...

CITY           SKY/WX    TMP DP  RH WIND       PRES   REMARKS
SPRINGFIELD    LGT RAIN  37  28  70 VRB6      30.25F
JOPLIN         CLOUDY    40  27  59 E8        30.23S

$$
MOZ032>034-039>042-045>050-055>058-069>072-311400-
...CENTRAL MISSOURI...

CITY           SKY/WX    TMP DP  RH WIND       PRES   REMARKS
COLUMBIA       CLOUDY    33  22  63 S5        30.29S WCI  29
JEFFERSON CITY CLOUDY    31  24  75 SE6       30.31F WCI  25
ROLLA          CLOUDY    34  23  64 S10       30.28S WCI  26
SEDALIA        LGT RAIN  35  26  69 CALM      30.29S
WHITEMAN AFB   LGT RAIN  32  28  86 SE1       30.28R
OSAGE BEACH    CLOUDY    36  19  51 CALM      30.29S

$$
MOZ051-052-059>065-311400-
...EAST CENTRAL MISSOURI...

CITY           SKY/WX    TMP DP  RH WIND       PRES   REMARKS
ST LOUIS INTL  MOCLDY    32  20  61 CALM      30.34R
SPIRIT OF STL  CLOUDY    27  24  89 CALM      30.33R
ST CHARLES     MOCLDY    26  22  84 CALM      30.34R

$$
MOZ072>076-082>087-097>100-106>115-311400-
...SOUTH CENTRAL AND SOUTHEAST MISSOURI...

CITY           SKY/WX    TMP DP  RH WIND       PRES   REMARKS
CAPE GIRARDEAU CLOUDY    32  26  78 SE3       30.38R
FARMINGTON     CLOUDY    30  21  69 SE5       30.36S WCI  25
POPLAR BLUFF   CLOUDY    31  26  82 CALM      30.37R
WEST PLAINS    CLOUDY    34  23  64 SE6       30.32S WCI  29

$$



USA.gov is the U.S. government's official web portal to all federal, state and local government web resources and services.